Tracking 30703 objects as of 13-Jun-2025
HD Live streaming from Space Station
objects crossing your sky now

STARLINK-6374

Track STARLINK-6374 now!
10-day predictions
STARLINK-6374 is classified as:


NORAD ID: 57338
Int'l Code: 2023-099L
Perigee: 565.2 km
Apogee: 567.2 km
Inclination: 43.0 °
Period: 95.8 minutes
Semi major axis: 6937 km
RCS: Unknown
Launch date: July 16, 2023
Source: United States (US)
Launch site: AIR FORCE EASTERN TEST RANGE (AFETR)
Your satellite tracking list
Your tracking list is empty




NASA's NSSDC Master Catalog

Two Line Element Set (TLE):
1 57338U 23099L   25164.57258084 -.00000197  00000-0  47749-6 0  9991
2 57338  43.0049 271.3444 0001478 269.7558  90.3115 15.02537504105631
Source of the keplerian elements: AFSPC